カタログに戻る

KINEIS-3E

運用中通信SSO
NORAD 61222·PAYLOAD·🇫🇷 France

打ち上げ Sep 20, 2024 から Rocket Lab Launch Complex 1

Loading…

次のパス (今後24時間)

TLE

最新Source: Space-Track

元期: Sep 14, 2026, 05:07 UTC

1 61222U 24172C   26257.21376119  .00001278  00000-0  20980-3 0  9991
2 61222  98.0405 346.1459 0001234 120.9921 239.1408 14.72372561106458

AllMySatでKINEIS-3Eをリアルタイム追跡

Download on the App Store